Index of /20260425/WXO-DD/model_rdps/10km/12/076
Name Last modified Size Description
Parent Directory -
20260425T12Z_MSC_RDPS_AbsoluteVorticity_IsbL-0250_RLatLon0.09_PT076H.grib2 2026-04-25 15:03 615K
20260425T12Z_MSC_RDPS_AbsoluteVorticity_IsbL-0500_RLatLon0.09_PT076H.grib2 2026-04-25 15:03 571K
20260425T12Z_MSC_RDPS_AbsoluteVorticity_IsbL-0700_RLatLon0.09_PT076H.grib2 2026-04-25 15:03 619K
20260425T12Z_MSC_RDPS_AbsoluteVorticity_IsbL-0850_RLatLon0.09_PT076H.grib2 2026-04-25 15:03 778K
20260425T12Z_MSC_RDPS_AirTemp_AGL-120m_RLatLon0.09_PT076H.grib2 2026-04-25 15:03 383K
20260425T12Z_MSC_RDPS_AirTemp_AGL-2m_RLatLon0.09_PT076H.grib2 2026-04-25 15:03 638K
20260425T12Z_MSC_RDPS_AirTemp_AGL-40m_RLatLon0.09_PT076H.grib2 2026-04-25 15:03 409K
20260425T12Z_MSC_RDPS_AirTemp_AGL-80m_RLatLon0.09_PT076H.grib2 2026-04-25 15:03 389K
20260425T12Z_MSC_RDPS_AirTemp_IsbL-0001_RLatLon0.09_PT076H.grib2 2026-04-25 15:03 285K
20260425T12Z_MSC_RDPS_AirTemp_IsbL-0005_RLatLon0.09_PT076H.grib2 2026-04-25 15:03 300K
20260425T12Z_MSC_RDPS_AirTemp_IsbL-0010_RLatLon0.09_PT076H.grib2 2026-04-25 15:03 311K
20260425T12Z_MSC_RDPS_AirTemp_IsbL-0020_RLatLon0.09_PT076H.grib2 2026-04-25 15:03 324K
20260425T12Z_MSC_RDPS_AirTemp_IsbL-0030_RLatLon0.09_PT076H.grib2 2026-04-25 15:03 343K
20260425T12Z_MSC_RDPS_AirTemp_IsbL-0050_RLatLon0.09_PT076H.grib2 2026-04-25 15:03 320K
20260425T12Z_MSC_RDPS_AirTemp_IsbL-0100_RLatLon0.09_PT076H.grib2 2026-04-25 15:03 431K
20260425T12Z_MSC_RDPS_AirTemp_IsbL-0150_RLatLon0.09_PT076H.grib2 2026-04-25 15:03 431K
20260425T12Z_MSC_RDPS_AirTemp_IsbL-0175_RLatLon0.09_PT076H.grib2 2026-04-25 15:03 421K
20260425T12Z_MSC_RDPS_AirTemp_IsbL-0200_RLatLon0.09_PT076H.grib2 2026-04-25 15:03 419K
20260425T12Z_MSC_RDPS_AirTemp_IsbL-0225_RLatLon0.09_PT076H.grib2 2026-04-25 15:03 420K
20260425T12Z_MSC_RDPS_AirTemp_IsbL-0250_RLatLon0.09_PT076H.grib2 2026-04-25 15:03 429K
20260425T12Z_MSC_RDPS_AirTemp_IsbL-0275_RLatLon0.09_PT076H.grib2 2026-04-25 15:03 410K
20260425T12Z_MSC_RDPS_AirTemp_IsbL-0300_RLatLon0.09_PT076H.grib2 2026-04-25 15:03 415K
20260425T12Z_MSC_RDPS_AirTemp_IsbL-0350_RLatLon0.09_PT076H.grib2 2026-04-25 15:03 428K
20260425T12Z_MSC_RDPS_AirTemp_IsbL-0400_RLatLon0.09_PT076H.grib2 2026-04-25 15:03 428K
20260425T12Z_MSC_RDPS_AirTemp_IsbL-0450_RLatLon0.09_PT076H.grib2 2026-04-25 15:03 433K
20260425T12Z_MSC_RDPS_AirTemp_IsbL-0500_RLatLon0.09_PT076H.grib2 2026-04-25 15:03 407K
20260425T12Z_MSC_RDPS_AirTemp_IsbL-0550_RLatLon0.09_PT076H.grib2 2026-04-25 15:03 424K
20260425T12Z_MSC_RDPS_AirTemp_IsbL-0600_RLatLon0.09_PT076H.grib2 2026-04-25 15:03 438K
20260425T12Z_MSC_RDPS_AirTemp_IsbL-0650_RLatLon0.09_PT076H.grib2 2026-04-25 15:03 454K
20260425T12Z_MSC_RDPS_AirTemp_IsbL-0700_RLatLon0.09_PT076H.grib2 2026-04-25 15:03 479K
20260425T12Z_MSC_RDPS_AirTemp_IsbL-0750_RLatLon0.09_PT076H.grib2 2026-04-25 15:03 409K
20260425T12Z_MSC_RDPS_AirTemp_IsbL-0800_RLatLon0.09_PT076H.grib2 2026-04-25 15:03 459K
20260425T12Z_MSC_RDPS_AirTemp_IsbL-0850_RLatLon0.09_PT076H.grib2 2026-04-25 15:03 511K
20260425T12Z_MSC_RDPS_AirTemp_IsbL-0875_RLatLon0.09_PT076H.grib2 2026-04-25 15:03 528K
20260425T12Z_MSC_RDPS_AirTemp_IsbL-0900_RLatLon0.09_PT076H.grib2 2026-04-25 15:03 534K
20260425T12Z_MSC_RDPS_AirTemp_IsbL-0925_RLatLon0.09_PT076H.grib2 2026-04-25 15:03 532K
20260425T12Z_MSC_RDPS_AirTemp_IsbL-0950_RLatLon0.09_PT076H.grib2 2026-04-25 15:03 535K
20260425T12Z_MSC_RDPS_AirTemp_IsbL-0970_RLatLon0.09_PT076H.grib2 2026-04-25 15:03 531K
20260425T12Z_MSC_RDPS_AirTemp_IsbL-0985_RLatLon0.09_PT076H.grib2 2026-04-25 15:03 520K
20260425T12Z_MSC_RDPS_AirTemp_IsbL-1000_RLatLon0.09_PT076H.grib2 2026-04-25 15:03 504K
20260425T12Z_MSC_RDPS_AirTemp_IsbL-1015_RLatLon0.09_PT076H.grib2 2026-04-25 15:03 502K
20260425T12Z_MSC_RDPS_Albedo_Sfc_RLatLon0.09_PT076H.grib2 2026-04-25 15:03 165K
20260425T12Z_MSC_RDPS_CAPE_Sfc_RLatLon0.09_PT076H.grib2 2026-04-25 15:03 1.8M
20260425T12Z_MSC_RDPS_CIN_Sfc_RLatLon0.09_PT076H.grib2 2026-04-25 15:03 1.1M
20260425T12Z_MSC_RDPS_CloudWater_EAtm_RLatLon0.09_PT076H.grib2 2026-04-25 15:03 219K
20260425T12Z_MSC_RDPS_ConvectivePrecip-Accum_Sfc_RLatLon0.09_PT076H.grib2 2026-04-25 15:03 1.3M
20260425T12Z_MSC_RDPS_DewPointDepression_AGL-2m_RLatLon0.09_PT076H.grib2 2026-04-25 15:03 416K
20260425T12Z_MSC_RDPS_DewPointDepression_IsbL-0001_RLatLon0.09_PT076H.grib2 2026-04-25 15:03 193
20260425T12Z_MSC_RDPS_DewPointDepression_IsbL-0005_RLatLon0.09_PT076H.grib2 2026-04-25 15:03 193
20260425T12Z_MSC_RDPS_DewPointDepression_IsbL-0010_RLatLon0.09_PT076H.grib2 2026-04-25 15:03 193
20260425T12Z_MSC_RDPS_DewPointDepression_IsbL-0020_RLatLon0.09_PT076H.grib2 2026-04-25 15:03 193
20260425T12Z_MSC_RDPS_DewPointDepression_IsbL-0030_RLatLon0.09_PT076H.grib2 2026-04-25 15:03 193
20260425T12Z_MSC_RDPS_DewPointDepression_IsbL-0050_RLatLon0.09_PT076H.grib2 2026-04-25 15:03 87K
20260425T12Z_MSC_RDPS_DewPointDepression_IsbL-0100_RLatLon0.09_PT076H.grib2 2026-04-25 15:03 128K
20260425T12Z_MSC_RDPS_DewPointDepression_IsbL-0150_RLatLon0.09_PT076H.grib2 2026-04-25 15:03 150K
20260425T12Z_MSC_RDPS_DewPointDepression_IsbL-0175_RLatLon0.09_PT076H.grib2 2026-04-25 15:03 182K
20260425T12Z_MSC_RDPS_DewPointDepression_IsbL-0200_RLatLon0.09_PT076H.grib2 2026-04-25 15:03 220K
20260425T12Z_MSC_RDPS_DewPointDepression_IsbL-0225_RLatLon0.09_PT076H.grib2 2026-04-25 15:03 260K
20260425T12Z_MSC_RDPS_DewPointDepression_IsbL-0250_RLatLon0.09_PT076H.grib2 2026-04-25 15:03 294K
20260425T12Z_MSC_RDPS_DewPointDepression_IsbL-0275_RLatLon0.09_PT076H.grib2 2026-04-25 15:03 302K
20260425T12Z_MSC_RDPS_DewPointDepression_IsbL-0300_RLatLon0.09_PT076H.grib2 2026-04-25 15:03 319K
20260425T12Z_MSC_RDPS_DewPointDepression_IsbL-0350_RLatLon0.09_PT076H.grib2 2026-04-25 15:03 328K
20260425T12Z_MSC_RDPS_DewPointDepression_IsbL-0400_RLatLon0.09_PT076H.grib2 2026-04-25 15:03 341K
20260425T12Z_MSC_RDPS_DewPointDepression_IsbL-0450_RLatLon0.09_PT076H.grib2 2026-04-25 15:03 349K
20260425T12Z_MSC_RDPS_DewPointDepression_IsbL-0500_RLatLon0.09_PT076H.grib2 2026-04-25 15:03 354K
20260425T12Z_MSC_RDPS_DewPointDepression_IsbL-0550_RLatLon0.09_PT076H.grib2 2026-04-25 15:03 363K
20260425T12Z_MSC_RDPS_DewPointDepression_IsbL-0600_RLatLon0.09_PT076H.grib2 2026-04-25 15:03 375K
20260425T12Z_MSC_RDPS_DewPointDepression_IsbL-0650_RLatLon0.09_PT076H.grib2 2026-04-25 15:03 381K
20260425T12Z_MSC_RDPS_DewPointDepression_IsbL-0700_RLatLon0.09_PT076H.grib2 2026-04-25 15:03 396K
20260425T12Z_MSC_RDPS_DewPointDepression_IsbL-0750_RLatLon0.09_PT076H.grib2 2026-04-25 15:03 418K
20260425T12Z_MSC_RDPS_DewPointDepression_IsbL-0800_RLatLon0.09_PT076H.grib2 2026-04-25 15:03 451K
20260425T12Z_MSC_RDPS_DewPointDepression_IsbL-0850_RLatLon0.09_PT076H.grib2 2026-04-25 15:03 476K
20260425T12Z_MSC_RDPS_DewPointDepression_IsbL-0875_RLatLon0.09_PT076H.grib2 2026-04-25 15:03 477K
20260425T12Z_MSC_RDPS_DewPointDepression_IsbL-0900_RLatLon0.09_PT076H.grib2 2026-04-25 15:03 466K
20260425T12Z_MSC_RDPS_DewPointDepression_IsbL-0925_RLatLon0.09_PT076H.grib2 2026-04-25 15:03 455K
20260425T12Z_MSC_RDPS_DewPointDepression_IsbL-0950_RLatLon0.09_PT076H.grib2 2026-04-25 15:03 447K
20260425T12Z_MSC_RDPS_DewPointDepression_IsbL-0970_RLatLon0.09_PT076H.grib2 2026-04-25 15:03 441K
20260425T12Z_MSC_RDPS_DewPointDepression_IsbL-0985_RLatLon0.09_PT076H.grib2 2026-04-25 15:03 437K
20260425T12Z_MSC_RDPS_DewPointDepression_IsbL-1000_RLatLon0.09_PT076H.grib2 2026-04-25 15:03 433K
20260425T12Z_MSC_RDPS_DewPointDepression_IsbL-1015_RLatLon0.09_PT076H.grib2 2026-04-25 15:03 427K
20260425T12Z_MSC_RDPS_DewPoint_AGL-2m_RLatLon0.09_PT076H.grib2 2026-04-25 15:03 404K
20260425T12Z_MSC_RDPS_DownwardLongwaveRadiationFlux-Accum_Sfc_RLatLon0.09_PT076H.grib2 2026-04-25 15:03 437K
20260425T12Z_MSC_RDPS_DownwardShortwaveRadiationFlux-Accum_NTAtm_RLatLon0.09_PT076H.grib2 2026-04-25 15:03 104K
20260425T12Z_MSC_RDPS_DownwardShortwaveRadiationFlux-Accum_Sfc_RLatLon0.09_PT076H.grib2 2026-04-25 15:03 639K
20260425T12Z_MSC_RDPS_FreezingRain-Accum1h_Sfc_RLatLon0.09_PT076H.grib2 2026-04-25 15:03 30K
20260425T12Z_MSC_RDPS_FreezingRain-Accum_Sfc_RLatLon0.09_PT076H.grib2 2026-04-25 15:03 191K
20260425T12Z_MSC_RDPS_GeopotentialHeight_IsbL-0001_RLatLon0.09_PT076H.grib2 2026-04-25 15:03 246K
20260425T12Z_MSC_RDPS_GeopotentialHeight_IsbL-0005_RLatLon0.09_PT076H.grib2 2026-04-25 15:03 314K
20260425T12Z_MSC_RDPS_GeopotentialHeight_IsbL-0010_RLatLon0.09_PT076H.grib2 2026-04-25 15:03 344K
20260425T12Z_MSC_RDPS_GeopotentialHeight_IsbL-0020_RLatLon0.09_PT076H.grib2 2026-04-25 15:03 309K
20260425T12Z_MSC_RDPS_GeopotentialHeight_IsbL-0030_RLatLon0.09_PT076H.grib2 2026-04-25 15:03 311K
20260425T12Z_MSC_RDPS_GeopotentialHeight_IsbL-0050_RLatLon0.09_PT076H.grib2 2026-04-25 15:03 311K
20260425T12Z_MSC_RDPS_GeopotentialHeight_IsbL-0100_RLatLon0.09_PT076H.grib2 2026-04-25 15:03 289K
20260425T12Z_MSC_RDPS_GeopotentialHeight_IsbL-0150_RLatLon0.09_PT076H.grib2 2026-04-25 15:03 232K
20260425T12Z_MSC_RDPS_GeopotentialHeight_IsbL-0175_RLatLon0.09_PT076H.grib2 2026-04-25 15:03 236K
20260425T12Z_MSC_RDPS_GeopotentialHeight_IsbL-0200_RLatLon0.09_PT076H.grib2 2026-04-25 15:03 269K
20260425T12Z_MSC_RDPS_GeopotentialHeight_IsbL-0225_RLatLon0.09_PT076H.grib2 2026-04-25 15:03 269K
20260425T12Z_MSC_RDPS_GeopotentialHeight_IsbL-0250_RLatLon0.09_PT076H.grib2 2026-04-25 15:03 269K
20260425T12Z_MSC_RDPS_GeopotentialHeight_IsbL-0275_RLatLon0.09_PT076H.grib2 2026-04-25 15:03 269K
20260425T12Z_MSC_RDPS_GeopotentialHeight_IsbL-0300_RLatLon0.09_PT076H.grib2 2026-04-25 15:03 268K
20260425T12Z_MSC_RDPS_GeopotentialHeight_IsbL-0350_RLatLon0.09_PT076H.grib2 2026-04-25 15:03 234K
20260425T12Z_MSC_RDPS_GeopotentialHeight_IsbL-0400_RLatLon0.09_PT076H.grib2 2026-04-25 15:03 231K
20260425T12Z_MSC_RDPS_GeopotentialHeight_IsbL-0450_RLatLon0.09_PT076H.grib2 2026-04-25 15:03 226K
20260425T12Z_MSC_RDPS_GeopotentialHeight_IsbL-0500_RLatLon0.09_PT076H.grib2 2026-04-25 15:03 292K
20260425T12Z_MSC_RDPS_GeopotentialHeight_IsbL-0550_RLatLon0.09_PT076H.grib2 2026-04-25 15:03 288K
20260425T12Z_MSC_RDPS_GeopotentialHeight_IsbL-0600_RLatLon0.09_PT076H.grib2 2026-04-25 15:03 285K
20260425T12Z_MSC_RDPS_GeopotentialHeight_IsbL-0650_RLatLon0.09_PT076H.grib2 2026-04-25 15:03 284K
20260425T12Z_MSC_RDPS_GeopotentialHeight_IsbL-0700_RLatLon0.09_PT076H.grib2 2026-04-25 15:03 254K
20260425T12Z_MSC_RDPS_GeopotentialHeight_IsbL-0750_RLatLon0.09_PT076H.grib2 2026-04-25 15:03 256K
20260425T12Z_MSC_RDPS_GeopotentialHeight_IsbL-0800_RLatLon0.09_PT076H.grib2 2026-04-25 15:03 347K
20260425T12Z_MSC_RDPS_GeopotentialHeight_IsbL-0850_RLatLon0.09_PT076H.grib2 2026-04-25 15:03 359K
20260425T12Z_MSC_RDPS_GeopotentialHeight_IsbL-0875_RLatLon0.09_PT076H.grib2 2026-04-25 15:03 361K
20260425T12Z_MSC_RDPS_GeopotentialHeight_IsbL-0900_RLatLon0.09_PT076H.grib2 2026-04-25 15:03 367K
20260425T12Z_MSC_RDPS_GeopotentialHeight_IsbL-0925_RLatLon0.09_PT076H.grib2 2026-04-25 15:03 369K
20260425T12Z_MSC_RDPS_GeopotentialHeight_IsbL-0950_RLatLon0.09_PT076H.grib2 2026-04-25 15:03 374K
20260425T12Z_MSC_RDPS_GeopotentialHeight_IsbL-0970_RLatLon0.09_PT076H.grib2 2026-04-25 15:03 380K
20260425T12Z_MSC_RDPS_GeopotentialHeight_IsbL-0985_RLatLon0.09_PT076H.grib2 2026-04-25 15:03 389K
20260425T12Z_MSC_RDPS_GeopotentialHeight_IsbL-1000_RLatLon0.09_PT076H.grib2 2026-04-25 15:03 402K
20260425T12Z_MSC_RDPS_GeopotentialHeight_IsbL-1015_RLatLon0.09_PT076H.grib2 2026-04-25 15:03 417K
20260425T12Z_MSC_RDPS_Humidex_Sfc_RLatLon0.09_PT076H.grib2 2026-04-25 15:03 2.4M
20260425T12Z_MSC_RDPS_IcePellets-Accum1h_Sfc_RLatLon0.09_PT076H.grib2 2026-04-25 15:03 10K
20260425T12Z_MSC_RDPS_IcePellets-Accum_Sfc_RLatLon0.09_PT076H.grib2 2026-04-25 15:03 45K
20260425T12Z_MSC_RDPS_KIndex_Sfc_RLatLon0.09_PT076H.grib2 2026-04-25 15:03 2.5M
20260425T12Z_MSC_RDPS_LatentHeatNetFlux_Sfc_RLatLon0.09_PT076H.grib2 2026-04-25 15:03 304K
20260425T12Z_MSC_RDPS_LiftedIndex-MU-VT_IsbL-0500_RLatLon0.09_PT076H.grib2 2026-04-25 15:03 2.4M
20260425T12Z_MSC_RDPS_NetLongwaveRadiationFlux-Accum_Sfc_RLatLon0.09_PT076H.grib2 2026-04-25 15:03 484K
20260425T12Z_MSC_RDPS_NetShortwaveRadiationFlux-Accum_Sfc_RLatLon0.09_PT076H.grib2 2026-04-25 15:03 642K
20260425T12Z_MSC_RDPS_PlanetaryBoundaryLayerHeight_Sfc_RLatLon0.09_PT076H.grib2 2026-04-25 15:03 1.2M
20260425T12Z_MSC_RDPS_Precip-Accum1h_Sfc_RLatLon0.09_PT076H.grib2 2026-04-25 15:03 1.2M
20260425T12Z_MSC_RDPS_Precip-Accum_Sfc_RLatLon0.09_PT076H.grib2 2026-04-25 15:03 2.2M
20260425T12Z_MSC_RDPS_PrecipRate_Sfc_RLatLon0.09_PT076H.grib2 2026-04-25 15:03 182K
20260425T12Z_MSC_RDPS_PrecipType-Instant_Sfc_RLatLon0.09_PT076H.grib2 2026-04-25 15:03 566K
20260425T12Z_MSC_RDPS_Pressure-Trend3h_Sfc_RLatLon0.09_PT076H.grib2 2026-04-25 15:03 1.2M
20260425T12Z_MSC_RDPS_Pressure_MSL_RLatLon0.09_PT076H.grib2 2026-04-25 15:03 299K
20260425T12Z_MSC_RDPS_Pressure_PVU-1.5_RLatLon0.09_PT076H.grib2 2026-04-25 15:03 2.3M
20260425T12Z_MSC_RDPS_Pressure_PVU-1_RLatLon0.09_PT076H.grib2 2026-04-25 15:03 2.4M
20260425T12Z_MSC_RDPS_Pressure_PVU-2_RLatLon0.09_PT076H.grib2 2026-04-25 15:03 2.4M
20260425T12Z_MSC_RDPS_Pressure_Sfc_RLatLon0.09_PT076H.grib2 2026-04-25 15:03 502K
20260425T12Z_MSC_RDPS_RadiativeTemp_Sfc_RLatLon0.09_PT076H.grib2 2026-04-25 15:03 319K
20260425T12Z_MSC_RDPS_Rain-Accum1h_Sfc_RLatLon0.09_PT076H.grib2 2026-04-25 15:03 591K
20260425T12Z_MSC_RDPS_Rain-Accum_Sfc_RLatLon0.09_PT076H.grib2 2026-04-25 15:03 1.7M
20260425T12Z_MSC_RDPS_RelativeHumidity_AGL-2m_RLatLon0.09_PT076H.grib2 2026-04-25 15:03 1.0M
20260425T12Z_MSC_RDPS_RelativeHumidity_IsbL-0010_RLatLon0.09_PT076H.grib2 2026-04-25 15:03 620K
20260425T12Z_MSC_RDPS_RelativeHumidity_IsbL-0020_RLatLon0.09_PT076H.grib2 2026-04-25 15:03 645K
20260425T12Z_MSC_RDPS_RelativeHumidity_IsbL-0030_RLatLon0.09_PT076H.grib2 2026-04-25 15:03 611K
20260425T12Z_MSC_RDPS_RelativeHumidity_IsbL-0050_RLatLon0.09_PT076H.grib2 2026-04-25 15:03 377K
20260425T12Z_MSC_RDPS_RelativeHumidity_IsbL-0100_RLatLon0.09_PT076H.grib2 2026-04-25 15:03 282K
20260425T12Z_MSC_RDPS_RelativeHumidity_IsbL-0150_RLatLon0.09_PT076H.grib2 2026-04-25 15:03 411K
20260425T12Z_MSC_RDPS_RelativeHumidity_IsbL-0175_RLatLon0.09_PT076H.grib2 2026-04-25 15:03 490K
20260425T12Z_MSC_RDPS_RelativeHumidity_IsbL-0200_RLatLon0.09_PT076H.grib2 2026-04-25 15:03 558K
20260425T12Z_MSC_RDPS_RelativeHumidity_IsbL-0225_RLatLon0.09_PT076H.grib2 2026-04-25 15:03 620K
20260425T12Z_MSC_RDPS_RelativeHumidity_IsbL-0250_RLatLon0.09_PT076H.grib2 2026-04-25 15:03 687K
20260425T12Z_MSC_RDPS_RelativeHumidity_IsbL-0275_RLatLon0.09_PT076H.grib2 2026-04-25 15:03 715K
20260425T12Z_MSC_RDPS_RelativeHumidity_IsbL-0300_RLatLon0.09_PT076H.grib2 2026-04-25 15:03 758K
20260425T12Z_MSC_RDPS_RelativeHumidity_IsbL-0350_RLatLon0.09_PT076H.grib2 2026-04-25 15:03 782K
20260425T12Z_MSC_RDPS_RelativeHumidity_IsbL-0400_RLatLon0.09_PT076H.grib2 2026-04-25 15:03 796K
20260425T12Z_MSC_RDPS_RelativeHumidity_IsbL-0450_RLatLon0.09_PT076H.grib2 2026-04-25 15:03 802K
20260425T12Z_MSC_RDPS_RelativeHumidity_IsbL-0500_RLatLon0.09_PT076H.grib2 2026-04-25 15:03 807K
20260425T12Z_MSC_RDPS_RelativeHumidity_IsbL-0550_RLatLon0.09_PT076H.grib2 2026-04-25 15:03 823K
20260425T12Z_MSC_RDPS_RelativeHumidity_IsbL-0600_RLatLon0.09_PT076H.grib2 2026-04-25 15:03 840K
20260425T12Z_MSC_RDPS_RelativeHumidity_IsbL-0650_RLatLon0.09_PT076H.grib2 2026-04-25 15:03 853K
20260425T12Z_MSC_RDPS_RelativeHumidity_IsbL-0700_RLatLon0.09_PT076H.grib2 2026-04-25 15:03 881K
20260425T12Z_MSC_RDPS_RelativeHumidity_IsbL-0750_RLatLon0.09_PT076H.grib2 2026-04-25 15:03 925K
20260425T12Z_MSC_RDPS_RelativeHumidity_IsbL-0800_RLatLon0.09_PT076H.grib2 2026-04-25 15:03 1.0M
20260425T12Z_MSC_RDPS_RelativeHumidity_IsbL-0850_RLatLon0.09_PT076H.grib2 2026-04-25 15:03 1.0M
20260425T12Z_MSC_RDPS_RelativeHumidity_IsbL-0875_RLatLon0.09_PT076H.grib2 2026-04-25 15:03 1.1M
20260425T12Z_MSC_RDPS_RelativeHumidity_IsbL-0900_RLatLon0.09_PT076H.grib2 2026-04-25 15:03 1.1M
20260425T12Z_MSC_RDPS_RelativeHumidity_IsbL-0925_RLatLon0.09_PT076H.grib2 2026-04-25 15:03 1.1M
20260425T12Z_MSC_RDPS_RelativeHumidity_IsbL-0950_RLatLon0.09_PT076H.grib2 2026-04-25 15:03 1.1M
20260425T12Z_MSC_RDPS_RelativeHumidity_IsbL-0970_RLatLon0.09_PT076H.grib2 2026-04-25 15:03 1.1M
20260425T12Z_MSC_RDPS_RelativeHumidity_IsbL-0985_RLatLon0.09_PT076H.grib2 2026-04-25 15:03 1.0M
20260425T12Z_MSC_RDPS_RelativeHumidity_IsbL-1000_RLatLon0.09_PT076H.grib2 2026-04-25 15:03 1.0M
20260425T12Z_MSC_RDPS_RelativeHumidity_IsbL-1015_RLatLon0.09_PT076H.grib2 2026-04-25 15:03 1.0M
20260425T12Z_MSC_RDPS_Runoff-Accum_Sfc_RLatLon0.09_PT076H.grib2 2026-04-25 15:03 62K
20260425T12Z_MSC_RDPS_SWEATIndex_Sfc_RLatLon0.09_PT076H.grib2 2026-04-25 15:03 2.4M
20260425T12Z_MSC_RDPS_SeeingIndex_EAtm_RLatLon0.09_PT076H.grib2 2026-04-25 15:03 1.0M
20260425T12Z_MSC_RDPS_SensibleHeatNetFlux_Sfc_RLatLon0.09_PT076H.grib2 2026-04-25 15:03 368K
20260425T12Z_MSC_RDPS_ShowalterIndex_IsbL-0500_RLatLon0.09_PT076H.grib2 2026-04-25 15:03 2.6M
20260425T12Z_MSC_RDPS_SkyTransparencyIndex_EAtm_RLatLon0.09_PT076H.grib2 2026-04-25 15:03 704K
20260425T12Z_MSC_RDPS_Snow-Accum1h_Sfc_RLatLon0.09_PT076H.grib2 2026-04-25 15:03 380K
20260425T12Z_MSC_RDPS_Snow-Accum_Sfc_RLatLon0.09_PT076H.grib2 2026-04-25 15:03 894K
20260425T12Z_MSC_RDPS_SnowDensity_Sfc_RLatLon0.09_PT076H.grib2 2026-04-25 15:03 188K
20260425T12Z_MSC_RDPS_SnowDepth_Sfc_RLatLon0.09_PT076H.grib2 2026-04-25 15:03 728K
20260425T12Z_MSC_RDPS_SoilTemp_DBS-0to10cm_RLatLon0.09_PT076H.grib2 2026-04-25 15:03 240K
20260425T12Z_MSC_RDPS_SoilTemp_Sfc_RLatLon0.09_PT076H.grib2 2026-04-25 15:03 290K
20260425T12Z_MSC_RDPS_SoilVolumetricIceContent_Sfc_RLatLon0.09_PT076H.grib2 2026-04-25 15:03 169K
20260425T12Z_MSC_RDPS_SoilVolumetricWaterContent_DBS-0to10cm_RLatLon0.09_PT076H.grib2 2026-04-25 15:03 262K
20260425T12Z_MSC_RDPS_SoilVolumetricWaterContent_DBS-0to1cm_RLatLon0.09_PT076H.grib2 2026-04-25 15:03 343K
20260425T12Z_MSC_RDPS_SpecificHumidity_AGL-120m_RLatLon0.09_PT076H.grib2 2026-04-25 15:03 495K
20260425T12Z_MSC_RDPS_SpecificHumidity_AGL-2m_RLatLon0.09_PT076H.grib2 2026-04-25 15:03 665K
20260425T12Z_MSC_RDPS_SpecificHumidity_AGL-40m_RLatLon0.09_PT076H.grib2 2026-04-25 15:03 500K
20260425T12Z_MSC_RDPS_SpecificHumidity_AGL-80m_RLatLon0.09_PT076H.grib2 2026-04-25 15:03 497K
20260425T12Z_MSC_RDPS_SpecificHumidity_IsbL-0001_RLatLon0.09_PT076H.grib2 2026-04-25 15:03 348K
20260425T12Z_MSC_RDPS_SpecificHumidity_IsbL-0005_RLatLon0.09_PT076H.grib2 2026-04-25 15:03 414K
20260425T12Z_MSC_RDPS_SpecificHumidity_IsbL-0010_RLatLon0.09_PT076H.grib2 2026-04-25 15:03 388K
20260425T12Z_MSC_RDPS_SpecificHumidity_IsbL-0020_RLatLon0.09_PT076H.grib2 2026-04-25 15:03 375K
20260425T12Z_MSC_RDPS_SpecificHumidity_IsbL-0030_RLatLon0.09_PT076H.grib2 2026-04-25 15:03 466K
20260425T12Z_MSC_RDPS_SpecificHumidity_IsbL-0050_RLatLon0.09_PT076H.grib2 2026-04-25 15:03 368K
20260425T12Z_MSC_RDPS_SpecificHumidity_IsbL-0100_RLatLon0.09_PT076H.grib2 2026-04-25 15:03 421K
20260425T12Z_MSC_RDPS_SpecificHumidity_IsbL-0150_RLatLon0.09_PT076H.grib2 2026-04-25 15:03 354K
20260425T12Z_MSC_RDPS_SpecificHumidity_IsbL-0175_RLatLon0.09_PT076H.grib2 2026-04-25 15:03 461K
20260425T12Z_MSC_RDPS_SpecificHumidity_IsbL-0200_RLatLon0.09_PT076H.grib2 2026-04-25 15:03 454K
20260425T12Z_MSC_RDPS_SpecificHumidity_IsbL-0225_RLatLon0.09_PT076H.grib2 2026-04-25 15:03 452K
20260425T12Z_MSC_RDPS_SpecificHumidity_IsbL-0250_RLatLon0.09_PT076H.grib2 2026-04-25 15:03 553K
20260425T12Z_MSC_RDPS_SpecificHumidity_IsbL-0275_RLatLon0.09_PT076H.grib2 2026-04-25 15:03 468K
20260425T12Z_MSC_RDPS_SpecificHumidity_IsbL-0300_RLatLon0.09_PT076H.grib2 2026-04-25 15:03 539K
20260425T12Z_MSC_RDPS_SpecificHumidity_IsbL-0350_RLatLon0.09_PT076H.grib2 2026-04-25 15:03 536K
20260425T12Z_MSC_RDPS_SpecificHumidity_IsbL-0400_RLatLon0.09_PT076H.grib2 2026-04-25 15:03 516K
20260425T12Z_MSC_RDPS_SpecificHumidity_IsbL-0450_RLatLon0.09_PT076H.grib2 2026-04-25 15:03 568K
20260425T12Z_MSC_RDPS_SpecificHumidity_IsbL-0500_RLatLon0.09_PT076H.grib2 2026-04-25 15:03 503K
20260425T12Z_MSC_RDPS_SpecificHumidity_IsbL-0550_RLatLon0.09_PT076H.grib2 2026-04-25 15:03 558K
20260425T12Z_MSC_RDPS_SpecificHumidity_IsbL-0600_RLatLon0.09_PT076H.grib2 2026-04-25 15:03 627K
20260425T12Z_MSC_RDPS_SpecificHumidity_IsbL-0650_RLatLon0.09_PT076H.grib2 2026-04-25 15:03 546K
20260425T12Z_MSC_RDPS_SpecificHumidity_IsbL-0700_RLatLon0.09_PT076H.grib2 2026-04-25 15:03 593K
20260425T12Z_MSC_RDPS_SpecificHumidity_IsbL-0750_RLatLon0.09_PT076H.grib2 2026-04-25 15:03 649K
20260425T12Z_MSC_RDPS_SpecificHumidity_IsbL-0800_RLatLon0.09_PT076H.grib2 2026-04-25 15:03 732K
20260425T12Z_MSC_RDPS_SpecificHumidity_IsbL-0850_RLatLon0.09_PT076H.grib2 2026-04-25 15:03 804K
20260425T12Z_MSC_RDPS_SpecificHumidity_IsbL-0875_RLatLon0.09_PT076H.grib2 2026-04-25 15:03 828K
20260425T12Z_MSC_RDPS_SpecificHumidity_IsbL-0900_RLatLon0.09_PT076H.grib2 2026-04-25 15:03 839K
20260425T12Z_MSC_RDPS_SpecificHumidity_IsbL-0925_RLatLon0.09_PT076H.grib2 2026-04-25 15:03 701K
20260425T12Z_MSC_RDPS_SpecificHumidity_IsbL-0950_RLatLon0.09_PT076H.grib2 2026-04-25 15:03 700K
20260425T12Z_MSC_RDPS_SpecificHumidity_IsbL-0970_RLatLon0.09_PT076H.grib2 2026-04-25 15:03 695K
20260425T12Z_MSC_RDPS_SpecificHumidity_IsbL-0985_RLatLon0.09_PT076H.grib2 2026-04-25 15:03 690K
20260425T12Z_MSC_RDPS_SpecificHumidity_IsbL-1000_RLatLon0.09_PT076H.grib2 2026-04-25 15:03 686K
20260425T12Z_MSC_RDPS_SpecificHumidity_IsbL-1015_RLatLon0.09_PT076H.grib2 2026-04-25 15:03 678K
20260425T12Z_MSC_RDPS_SpecificHumidity_Sfc_RLatLon0.09_PT076H.grib2 2026-04-25 15:03 329K
20260425T12Z_MSC_RDPS_StormRelativeHelicity_EtaL-10000_RLatLon0.09_PT076H.grib2 2026-04-25 15:03 1.1M
20260425T12Z_MSC_RDPS_StormSeverityIndex_EtaL-10000_RLatLon0.09_PT076H.grib2 2026-04-25 15:03 1.1M
20260425T12Z_MSC_RDPS_Thickness_IsbL-0850to0700_RLatLon0.09_PT076H.grib2 2026-04-25 15:03 177K
20260425T12Z_MSC_RDPS_Thickness_IsbL-1000to0500_RLatLon0.09_PT076H.grib2 2026-04-25 15:03 202K
20260425T12Z_MSC_RDPS_Thickness_IsbL-1000to0850_RLatLon0.09_PT076H.grib2 2026-04-25 15:03 190K
20260425T12Z_MSC_RDPS_TotalCloudCover_Sfc_RLatLon0.09_PT076H.grib2 2026-04-25 15:03 661K
20260425T12Z_MSC_RDPS_TotalTotalsIndex_Sfc_RLatLon0.09_PT076H.grib2 2026-04-25 15:03 2.4M
20260425T12Z_MSC_RDPS_UVIndex-ClearSky_Sfc_RLatLon0.09_PT076H.grib2 2026-04-25 15:03 207K
20260425T12Z_MSC_RDPS_UVIndex_Sfc_RLatLon0.09_PT076H.grib2 2026-04-25 15:03 477K
20260425T12Z_MSC_RDPS_UpwardLongwaveRadiationFlux_NTAtm_RLatLon0.09_PT076H.grib2 2026-04-25 15:03 497K
20260425T12Z_MSC_RDPS_UpwardShortwaveRadiationFlux_NTAtm_RLatLon0.09_PT076H.grib2 2026-04-25 15:03 517K
20260425T12Z_MSC_RDPS_VerticalVelocity_IsbL-0250_RLatLon0.09_PT076H.grib2 2026-04-25 15:03 581K
20260425T12Z_MSC_RDPS_VerticalVelocity_IsbL-0500_RLatLon0.09_PT076H.grib2 2026-04-25 15:03 546K
20260425T12Z_MSC_RDPS_VerticalVelocity_IsbL-0700_RLatLon0.09_PT076H.grib2 2026-04-25 15:03 594K
20260425T12Z_MSC_RDPS_VerticalVelocity_IsbL-0850_RLatLon0.09_PT076H.grib2 2026-04-25 15:03 695K
20260425T12Z_MSC_RDPS_VerticalWindShear_EtaL-6500_RLatLon0.09_PT076H.grib2 2026-04-25 15:03 1.2M
20260425T12Z_MSC_RDPS_WindChill_Sfc_RLatLon0.09_PT076H.grib2 2026-04-25 15:03 1.1M
20260425T12Z_MSC_RDPS_WindDir_AGL-10m_RLatLon0.09_PT076H.grib2 2026-04-25 15:03 1.0M
20260425T12Z_MSC_RDPS_WindDir_AGL-120m_RLatLon0.09_PT076H.grib2 2026-04-25 15:03 615K
20260425T12Z_MSC_RDPS_WindDir_AGL-40m_RLatLon0.09_PT076H.grib2 2026-04-25 15:03 639K
20260425T12Z_MSC_RDPS_WindDir_AGL-80m_RLatLon0.09_PT076H.grib2 2026-04-25 15:03 624K
20260425T12Z_MSC_RDPS_WindDir_IsbL-0001_RLatLon0.09_PT076H.grib2 2026-04-25 15:03 293K
20260425T12Z_MSC_RDPS_WindDir_IsbL-0005_RLatLon0.09_PT076H.grib2 2026-04-25 15:03 362K
20260425T12Z_MSC_RDPS_WindDir_IsbL-0010_RLatLon0.09_PT076H.grib2 2026-04-25 15:03 369K
20260425T12Z_MSC_RDPS_WindDir_IsbL-0020_RLatLon0.09_PT076H.grib2 2026-04-25 15:03 406K
20260425T12Z_MSC_RDPS_WindDir_IsbL-0030_RLatLon0.09_PT076H.grib2 2026-04-25 15:03 408K
20260425T12Z_MSC_RDPS_WindDir_IsbL-0050_RLatLon0.09_PT076H.grib2 2026-04-25 15:03 423K
20260425T12Z_MSC_RDPS_WindDir_IsbL-0100_RLatLon0.09_PT076H.grib2 2026-04-25 15:03 410K
20260425T12Z_MSC_RDPS_WindDir_IsbL-0150_RLatLon0.09_PT076H.grib2 2026-04-25 15:03 405K
20260425T12Z_MSC_RDPS_WindDir_IsbL-0175_RLatLon0.09_PT076H.grib2 2026-04-25 15:03 424K
20260425T12Z_MSC_RDPS_WindDir_IsbL-0200_RLatLon0.09_PT076H.grib2 2026-04-25 15:03 437K
20260425T12Z_MSC_RDPS_WindDir_IsbL-0225_RLatLon0.09_PT076H.grib2 2026-04-25 15:03 445K
20260425T12Z_MSC_RDPS_WindDir_IsbL-0250_RLatLon0.09_PT076H.grib2 2026-04-25 15:03 453K
20260425T12Z_MSC_RDPS_WindDir_IsbL-0275_RLatLon0.09_PT076H.grib2 2026-04-25 15:03 472K
20260425T12Z_MSC_RDPS_WindDir_IsbL-0300_RLatLon0.09_PT076H.grib2 2026-04-25 15:03 470K
20260425T12Z_MSC_RDPS_WindDir_IsbL-0350_RLatLon0.09_PT076H.grib2 2026-04-25 15:03 496K
20260425T12Z_MSC_RDPS_WindDir_IsbL-0400_RLatLon0.09_PT076H.grib2 2026-04-25 15:03 511K
20260425T12Z_MSC_RDPS_WindDir_IsbL-0450_RLatLon0.09_PT076H.grib2 2026-04-25 15:03 523K
20260425T12Z_MSC_RDPS_WindDir_IsbL-0500_RLatLon0.09_PT076H.grib2 2026-04-25 15:03 534K
20260425T12Z_MSC_RDPS_WindDir_IsbL-0550_RLatLon0.09_PT076H.grib2 2026-04-25 15:03 546K
20260425T12Z_MSC_RDPS_WindDir_IsbL-0600_RLatLon0.09_PT076H.grib2 2026-04-25 15:03 569K
20260425T12Z_MSC_RDPS_WindDir_IsbL-0650_RLatLon0.09_PT076H.grib2 2026-04-25 15:03 611K
20260425T12Z_MSC_RDPS_WindDir_IsbL-0700_RLatLon0.09_PT076H.grib2 2026-04-25 15:03 649K
20260425T12Z_MSC_RDPS_WindDir_IsbL-0750_RLatLon0.09_PT076H.grib2 2026-04-25 15:03 701K
20260425T12Z_MSC_RDPS_WindDir_IsbL-0800_RLatLon0.09_PT076H.grib2 2026-04-25 15:03 774K
20260425T12Z_MSC_RDPS_WindDir_IsbL-0850_RLatLon0.09_PT076H.grib2 2026-04-25 15:03 857K
20260425T12Z_MSC_RDPS_WindDir_IsbL-0875_RLatLon0.09_PT076H.grib2 2026-04-25 15:03 888K
20260425T12Z_MSC_RDPS_WindDir_IsbL-0900_RLatLon0.09_PT076H.grib2 2026-04-25 15:03 903K
20260425T12Z_MSC_RDPS_WindDir_IsbL-0925_RLatLon0.09_PT076H.grib2 2026-04-25 15:03 909K
20260425T12Z_MSC_RDPS_WindDir_IsbL-0950_RLatLon0.09_PT076H.grib2 2026-04-25 15:03 909K
20260425T12Z_MSC_RDPS_WindDir_IsbL-0970_RLatLon0.09_PT076H.grib2 2026-04-25 15:03 916K
20260425T12Z_MSC_RDPS_WindDir_IsbL-0985_RLatLon0.09_PT076H.grib2 2026-04-25 15:03 928K
20260425T12Z_MSC_RDPS_WindDir_IsbL-1000_RLatLon0.09_PT076H.grib2 2026-04-25 15:03 945K
20260425T12Z_MSC_RDPS_WindDir_IsbL-1015_RLatLon0.09_PT076H.grib2 2026-04-25 15:03 962K
20260425T12Z_MSC_RDPS_WindGust-Max_AGL-10m_RLatLon0.09_PT076H.grib2 2026-04-25 15:03 1.0M
20260425T12Z_MSC_RDPS_WindGust-Min_AGL-10m_RLatLon0.09_PT076H.grib2 2026-04-25 15:03 1.0M
20260425T12Z_MSC_RDPS_WindGust_AGL-10m_RLatLon0.09_PT076H.grib2 2026-04-25 15:03 1.0M
20260425T12Z_MSC_RDPS_WindSpeed_AGL-10m_RLatLon0.09_PT076H.grib2 2026-04-25 15:03 847K
20260425T12Z_MSC_RDPS_WindSpeed_AGL-120m_RLatLon0.09_PT076H.grib2 2026-04-25 15:03 538K
20260425T12Z_MSC_RDPS_WindSpeed_AGL-40m_RLatLon0.09_PT076H.grib2 2026-04-25 15:03 543K
20260425T12Z_MSC_RDPS_WindSpeed_AGL-80m_RLatLon0.09_PT076H.grib2 2026-04-25 15:03 539K
20260425T12Z_MSC_RDPS_WindSpeed_IsbL-0001_RLatLon0.09_PT076H.grib2 2026-04-25 15:03 337K
20260425T12Z_MSC_RDPS_WindSpeed_IsbL-0005_RLatLon0.09_PT076H.grib2 2026-04-25 15:03 302K
20260425T12Z_MSC_RDPS_WindSpeed_IsbL-0010_RLatLon0.09_PT076H.grib2 2026-04-25 15:03 313K
20260425T12Z_MSC_RDPS_WindSpeed_IsbL-0020_RLatLon0.09_PT076H.grib2 2026-04-25 15:03 332K
20260425T12Z_MSC_RDPS_WindSpeed_IsbL-0030_RLatLon0.09_PT076H.grib2 2026-04-25 15:03 326K
20260425T12Z_MSC_RDPS_WindSpeed_IsbL-0050_RLatLon0.09_PT076H.grib2 2026-04-25 15:03 356K
20260425T12Z_MSC_RDPS_WindSpeed_IsbL-0100_RLatLon0.09_PT076H.grib2 2026-04-25 15:03 483K
20260425T12Z_MSC_RDPS_WindSpeed_IsbL-0150_RLatLon0.09_PT076H.grib2 2026-04-25 15:03 384K
20260425T12Z_MSC_RDPS_WindSpeed_IsbL-0175_RLatLon0.09_PT076H.grib2 2026-04-25 15:03 413K
20260425T12Z_MSC_RDPS_WindSpeed_IsbL-0200_RLatLon0.09_PT076H.grib2 2026-04-25 15:03 450K
20260425T12Z_MSC_RDPS_WindSpeed_IsbL-0225_RLatLon0.09_PT076H.grib2 2026-04-25 15:03 434K
20260425T12Z_MSC_RDPS_WindSpeed_IsbL-0250_RLatLon0.09_PT076H.grib2 2026-04-25 15:03 455K
20260425T12Z_MSC_RDPS_WindSpeed_IsbL-0275_RLatLon0.09_PT076H.grib2 2026-04-25 15:03 474K
20260425T12Z_MSC_RDPS_WindSpeed_IsbL-0300_RLatLon0.09_PT076H.grib2 2026-04-25 15:03 473K
20260425T12Z_MSC_RDPS_WindSpeed_IsbL-0350_RLatLon0.09_PT076H.grib2 2026-04-25 15:03 468K
20260425T12Z_MSC_RDPS_WindSpeed_IsbL-0400_RLatLon0.09_PT076H.grib2 2026-04-25 15:03 470K
20260425T12Z_MSC_RDPS_WindSpeed_IsbL-0450_RLatLon0.09_PT076H.grib2 2026-04-25 15:03 586K
20260425T12Z_MSC_RDPS_WindSpeed_IsbL-0500_RLatLon0.09_PT076H.grib2 2026-04-25 15:03 582K
20260425T12Z_MSC_RDPS_WindSpeed_IsbL-0550_RLatLon0.09_PT076H.grib2 2026-04-25 15:03 580K
20260425T12Z_MSC_RDPS_WindSpeed_IsbL-0600_RLatLon0.09_PT076H.grib2 2026-04-25 15:03 630K
20260425T12Z_MSC_RDPS_WindSpeed_IsbL-0650_RLatLon0.09_PT076H.grib2 2026-04-25 15:03 653K
20260425T12Z_MSC_RDPS_WindSpeed_IsbL-0700_RLatLon0.09_PT076H.grib2 2026-04-25 15:03 674K
20260425T12Z_MSC_RDPS_WindSpeed_IsbL-0750_RLatLon0.09_PT076H.grib2 2026-04-25 15:03 703K
20260425T12Z_MSC_RDPS_WindSpeed_IsbL-0800_RLatLon0.09_PT076H.grib2 2026-04-25 15:03 751K
20260425T12Z_MSC_RDPS_WindSpeed_IsbL-0850_RLatLon0.09_PT076H.grib2 2026-04-25 15:03 767K
20260425T12Z_MSC_RDPS_WindSpeed_IsbL-0875_RLatLon0.09_PT076H.grib2 2026-04-25 15:03 790K
20260425T12Z_MSC_RDPS_WindSpeed_IsbL-0900_RLatLon0.09_PT076H.grib2 2026-04-25 15:03 852K
20260425T12Z_MSC_RDPS_WindSpeed_IsbL-0925_RLatLon0.09_PT076H.grib2 2026-04-25 15:03 861K
20260425T12Z_MSC_RDPS_WindSpeed_IsbL-0950_RLatLon0.09_PT076H.grib2 2026-04-25 15:03 860K
20260425T12Z_MSC_RDPS_WindSpeed_IsbL-0970_RLatLon0.09_PT076H.grib2 2026-04-25 15:03 857K
20260425T12Z_MSC_RDPS_WindSpeed_IsbL-0985_RLatLon0.09_PT076H.grib2 2026-04-25 15:03 855K
20260425T12Z_MSC_RDPS_WindSpeed_IsbL-1000_RLatLon0.09_PT076H.grib2 2026-04-25 15:03 854K
20260425T12Z_MSC_RDPS_WindSpeed_IsbL-1015_RLatLon0.09_PT076H.grib2 2026-04-25 15:03 846K
20260425T12Z_MSC_RDPS_WindU_AGL-10m_RLatLon0.09_PT076H.grib2 2026-04-25 15:03 437K
20260425T12Z_MSC_RDPS_WindU_AGL-120m_RLatLon0.09_PT076H.grib2 2026-04-25 15:03 537K
20260425T12Z_MSC_RDPS_WindU_AGL-40m_RLatLon0.09_PT076H.grib2 2026-04-25 15:03 541K
20260425T12Z_MSC_RDPS_WindU_AGL-80m_RLatLon0.09_PT076H.grib2 2026-04-25 15:03 539K
20260425T12Z_MSC_RDPS_WindU_IsbL-0001_RLatLon0.09_PT076H.grib2 2026-04-25 15:03 297K
20260425T12Z_MSC_RDPS_WindU_IsbL-0005_RLatLon0.09_PT076H.grib2 2026-04-25 15:03 336K
20260425T12Z_MSC_RDPS_WindU_IsbL-0010_RLatLon0.09_PT076H.grib2 2026-04-25 15:03 305K
20260425T12Z_MSC_RDPS_WindU_IsbL-0020_RLatLon0.09_PT076H.grib2 2026-04-25 15:03 359K
20260425T12Z_MSC_RDPS_WindU_IsbL-0030_RLatLon0.09_PT076H.grib2 2026-04-25 15:03 355K
20260425T12Z_MSC_RDPS_WindU_IsbL-0050_RLatLon0.09_PT076H.grib2 2026-04-25 15:03 384K
20260425T12Z_MSC_RDPS_WindU_IsbL-0100_RLatLon0.09_PT076H.grib2 2026-04-25 15:03 341K
20260425T12Z_MSC_RDPS_WindU_IsbL-0150_RLatLon0.09_PT076H.grib2 2026-04-25 15:03 401K
20260425T12Z_MSC_RDPS_WindU_IsbL-0175_RLatLon0.09_PT076H.grib2 2026-04-25 15:03 427K
20260425T12Z_MSC_RDPS_WindU_IsbL-0200_RLatLon0.09_PT076H.grib2 2026-04-25 15:03 441K
20260425T12Z_MSC_RDPS_WindU_IsbL-0225_RLatLon0.09_PT076H.grib2 2026-04-25 15:03 443K
20260425T12Z_MSC_RDPS_WindU_IsbL-0250_RLatLon0.09_PT076H.grib2 2026-04-25 15:03 445K
20260425T12Z_MSC_RDPS_WindU_IsbL-0275_RLatLon0.09_PT076H.grib2 2026-04-25 15:03 465K
20260425T12Z_MSC_RDPS_WindU_IsbL-0300_RLatLon0.09_PT076H.grib2 2026-04-25 15:03 460K
20260425T12Z_MSC_RDPS_WindU_IsbL-0350_RLatLon0.09_PT076H.grib2 2026-04-25 15:03 472K
20260425T12Z_MSC_RDPS_WindU_IsbL-0400_RLatLon0.09_PT076H.grib2 2026-04-25 15:03 473K
20260425T12Z_MSC_RDPS_WindU_IsbL-0450_RLatLon0.09_PT076H.grib2 2026-04-25 15:03 471K
20260425T12Z_MSC_RDPS_WindU_IsbL-0500_RLatLon0.09_PT076H.grib2 2026-04-25 15:03 469K
20260425T12Z_MSC_RDPS_WindU_IsbL-0550_RLatLon0.09_PT076H.grib2 2026-04-25 15:03 469K
20260425T12Z_MSC_RDPS_WindU_IsbL-0600_RLatLon0.09_PT076H.grib2 2026-04-25 15:03 477K
20260425T12Z_MSC_RDPS_WindU_IsbL-0650_RLatLon0.09_PT076H.grib2 2026-04-25 15:03 479K
20260425T12Z_MSC_RDPS_WindU_IsbL-0700_RLatLon0.09_PT076H.grib2 2026-04-25 15:03 499K
20260425T12Z_MSC_RDPS_WindU_IsbL-0750_RLatLon0.09_PT076H.grib2 2026-04-25 15:03 525K
20260425T12Z_MSC_RDPS_WindU_IsbL-0800_RLatLon0.09_PT076H.grib2 2026-04-25 15:03 568K
20260425T12Z_MSC_RDPS_WindU_IsbL-0850_RLatLon0.09_PT076H.grib2 2026-04-25 15:03 622K
20260425T12Z_MSC_RDPS_WindU_IsbL-0875_RLatLon0.09_PT076H.grib2 2026-04-25 15:03 650K
20260425T12Z_MSC_RDPS_WindU_IsbL-0900_RLatLon0.09_PT076H.grib2 2026-04-25 15:03 654K
20260425T12Z_MSC_RDPS_WindU_IsbL-0925_RLatLon0.09_PT076H.grib2 2026-04-25 15:03 659K
20260425T12Z_MSC_RDPS_WindU_IsbL-0950_RLatLon0.09_PT076H.grib2 2026-04-25 15:03 656K
20260425T12Z_MSC_RDPS_WindU_IsbL-0970_RLatLon0.09_PT076H.grib2 2026-04-25 15:03 655K
20260425T12Z_MSC_RDPS_WindU_IsbL-0985_RLatLon0.09_PT076H.grib2 2026-04-25 15:03 794K
20260425T12Z_MSC_RDPS_WindU_IsbL-1000_RLatLon0.09_PT076H.grib2 2026-04-25 15:03 793K
20260425T12Z_MSC_RDPS_WindU_IsbL-1015_RLatLon0.09_PT076H.grib2 2026-04-25 15:03 788K
20260425T12Z_MSC_RDPS_WindV_AGL-10m_RLatLon0.09_PT076H.grib2 2026-04-25 15:03 435K
20260425T12Z_MSC_RDPS_WindV_AGL-120m_RLatLon0.09_PT076H.grib2 2026-04-25 15:03 534K
20260425T12Z_MSC_RDPS_WindV_AGL-40m_RLatLon0.09_PT076H.grib2 2026-04-25 15:03 537K
20260425T12Z_MSC_RDPS_WindV_AGL-80m_RLatLon0.09_PT076H.grib2 2026-04-25 15:03 535K
20260425T12Z_MSC_RDPS_WindV_IsbL-0001_RLatLon0.09_PT076H.grib2 2026-04-25 15:03 247K
20260425T12Z_MSC_RDPS_WindV_IsbL-0005_RLatLon0.09_PT076H.grib2 2026-04-25 15:03 291K
20260425T12Z_MSC_RDPS_WindV_IsbL-0010_RLatLon0.09_PT076H.grib2 2026-04-25 15:03 305K
20260425T12Z_MSC_RDPS_WindV_IsbL-0020_RLatLon0.09_PT076H.grib2 2026-04-25 15:03 323K
20260425T12Z_MSC_RDPS_WindV_IsbL-0030_RLatLon0.09_PT076H.grib2 2026-04-25 15:03 318K
20260425T12Z_MSC_RDPS_WindV_IsbL-0050_RLatLon0.09_PT076H.grib2 2026-04-25 15:03 350K
20260425T12Z_MSC_RDPS_WindV_IsbL-0100_RLatLon0.09_PT076H.grib2 2026-04-25 15:03 336K
20260425T12Z_MSC_RDPS_WindV_IsbL-0150_RLatLon0.09_PT076H.grib2 2026-04-25 15:03 397K
20260425T12Z_MSC_RDPS_WindV_IsbL-0175_RLatLon0.09_PT076H.grib2 2026-04-25 15:03 425K
20260425T12Z_MSC_RDPS_WindV_IsbL-0200_RLatLon0.09_PT076H.grib2 2026-04-25 15:03 342K
20260425T12Z_MSC_RDPS_WindV_IsbL-0225_RLatLon0.09_PT076H.grib2 2026-04-25 15:03 345K
20260425T12Z_MSC_RDPS_WindV_IsbL-0250_RLatLon0.09_PT076H.grib2 2026-04-25 15:03 345K
20260425T12Z_MSC_RDPS_WindV_IsbL-0275_RLatLon0.09_PT076H.grib2 2026-04-25 15:03 359K
20260425T12Z_MSC_RDPS_WindV_IsbL-0300_RLatLon0.09_PT076H.grib2 2026-04-25 15:03 356K
20260425T12Z_MSC_RDPS_WindV_IsbL-0350_RLatLon0.09_PT076H.grib2 2026-04-25 15:03 365K
20260425T12Z_MSC_RDPS_WindV_IsbL-0400_RLatLon0.09_PT076H.grib2 2026-04-25 15:03 470K
20260425T12Z_MSC_RDPS_WindV_IsbL-0450_RLatLon0.09_PT076H.grib2 2026-04-25 15:03 467K
20260425T12Z_MSC_RDPS_WindV_IsbL-0500_RLatLon0.09_PT076H.grib2 2026-04-25 15:03 465K
20260425T12Z_MSC_RDPS_WindV_IsbL-0550_RLatLon0.09_PT076H.grib2 2026-04-25 15:03 464K
20260425T12Z_MSC_RDPS_WindV_IsbL-0600_RLatLon0.09_PT076H.grib2 2026-04-25 15:03 472K
20260425T12Z_MSC_RDPS_WindV_IsbL-0650_RLatLon0.09_PT076H.grib2 2026-04-25 15:03 491K
20260425T12Z_MSC_RDPS_WindV_IsbL-0700_RLatLon0.09_PT076H.grib2 2026-04-25 15:03 509K
20260425T12Z_MSC_RDPS_WindV_IsbL-0750_RLatLon0.09_PT076H.grib2 2026-04-25 15:03 534K
20260425T12Z_MSC_RDPS_WindV_IsbL-0800_RLatLon0.09_PT076H.grib2 2026-04-25 15:03 564K
20260425T12Z_MSC_RDPS_WindV_IsbL-0850_RLatLon0.09_PT076H.grib2 2026-04-25 15:03 617K
20260425T12Z_MSC_RDPS_WindV_IsbL-0875_RLatLon0.09_PT076H.grib2 2026-04-25 15:03 639K
20260425T12Z_MSC_RDPS_WindV_IsbL-0900_RLatLon0.09_PT076H.grib2 2026-04-25 15:03 652K
20260425T12Z_MSC_RDPS_WindV_IsbL-0925_RLatLon0.09_PT076H.grib2 2026-04-25 15:03 658K
20260425T12Z_MSC_RDPS_WindV_IsbL-0950_RLatLon0.09_PT076H.grib2 2026-04-25 15:03 654K
20260425T12Z_MSC_RDPS_WindV_IsbL-0970_RLatLon0.09_PT076H.grib2 2026-04-25 15:03 653K
20260425T12Z_MSC_RDPS_WindV_IsbL-0985_RLatLon0.09_PT076H.grib2 2026-04-25 15:03 791K
20260425T12Z_MSC_RDPS_WindV_IsbL-1000_RLatLon0.09_PT076H.grib2 2026-04-25 15:03 789K
20260425T12Z_MSC_RDPS_WindV_IsbL-1015_RLatLon0.09_PT076H.grib2 2026-04-25 15:03 784K